sat.trackr.live / text

‹ back to catalog

COSMOS 2593

NORAD 65269 · 2025-182C

PAYLOAD ACTIVE UNKNOWN

§ Identity

Operator
Country
CIS
Launch date
2025-08-21
Launch site
PLMSC
Launch vehicle
Mass (kg)
RCS (m²)

External: N2YO · Heavens-Above · Gunter

§ Orbital elements

Epoch: 2026-05-25T03:11:49.670592Z

Period
90.20 min
Inclination
96.5864°
Eccentricity
0.0003463
Mean motion
15.96433658 rev/d
Perigee alt
282.0 km
Apogee alt
286.6 km
Semi-major
6,662.5 km
B*
1.5299e-4
RAAN
76.7228°
Arg perigee
172.1821°
Mean anomaly
187.9512°
Rev number
4,401

§ Raw data

COSMOS 25931 65269U 25182C   26145.13321378  .00063086  33703-5  15299-3 0  99952 65269  96.5864  76.7228 0003463 172.1821 187.9512 15.96433658 44010

JSON: /api/v1/satellites/65269 · /tle

For live sub-satellite position, see the globe view (requires WebGL).

§ Visibility from observer

Set your observer location to see the next 7 days of passes ≥ 10°. The values pass through the URL so the page stays shareable.

No JS? Fill the form by hand. The geolocation button needs JavaScript.